Temp
56 56 56 56 56 56 56 56 56 56 56 57 57 58 58 58 57 59 68 68 64 66 70 71 72 70 74 74 70 75 75 76 77 70 72 73 73 76 72 75 73 72 70 71 73 67 63 83 82 74 77 82 85 84
55 56 55 55 55 55 56 56 56 56 56 57 57 57 57 57 57 56 67 68 66 62 69 71 74 76 76 75 72 76 73 71 76 73 75 74 71 75 70 66 77 68 75 70 72 73 79 83 81 84 84 81 83 82
55 55 55 55 55 55 55 56 56 56 56 56 57 57 57 56 56 56 64 65 65 64 70 71 73 77 80 78 82 71 78 75 76 75 75 75 66 74 67 72 70 74 76 72 71 77 78 82 84 85 85 84 84 83
55 55 55 55 55 55 55 55 55 56 56 56 56 56 56 56 55 55 63 68 64 65 62 73 81 77 80 81 79 80 78 80 79 79 76 74 70 76 71 72 70 75 73 70 70 76 77 81 81 81 81 84 83 82
54 54 54 55 55 55 55 55 55 55 56 56 56 56 56 55 55 58 63 68 67 63 63 71 79 81 81 79 76 77 77 75 74 74 73 71 77 73 75 73 72 78 69 67 62 68 70 73 77 79 77 80 81 79
54 54 54 55 55 55 55 55 55 55 55 55 55 55 54 54 53 65 65 66 69 68 63 65 78 76 78 77 74 74 75 74 75 75 75 79 76 72 67 66 72 73 73 74 70 72 72 75 79 81 76 79 80 81
54 54 54 54 55 55 55 54 54 54 54 54 54 54 53 53 60 66 64 64 61 69 64 65 71 77 77 76 78 77 76 77 76 76 72 74 75 71 70 65 72 74 74 73 74 72 72 76 75 78 79 79 74 79
54 54 54 54 54 55 54 54 54 54 54 54 54 53 53 53 55 64 67 57 63 66 67 62 69 70 77 76 72 79 76 75 73 74 75 71 75 72 64 68 71 72 72 73 73 74 76 76 77 78 77 77 74 73
53 53 54 54 54 54 54 54 54 54 54 53 53 54 60 62 66 67 57 58 66 64 61 64 63 64 77 74 75 74 76 68 75 69 72 70 69 64 63 66 67 68 67 69 72 74 77 74 75 75 75 74 73 71
53 53 54 54 54 54 54 54 54 53 53 53 60 63 62 65 55 59 59 61 62 64 64 61 70 65 71 72 70 70 72 69 64 68 73 66 70 68 71 70 69 69 70 71 68 68 70 70 72 73 72 74 75 73
54 53 53 54 54 54 54 54 53 53 56 66 61 61 62 59 64 64 60 59 62 58 64 67 67 65 72 64 67 69 68 68 60 64 64 65 57 67 68 70 72 72 72 72 71 71 72 72 71 72 71 71 72 72
54 53 53 53 53 54 54 53 53 61 62 56 52 54 59 62 62 56 57 61 58 59 64 64 67 69 70 70 65 67 63 65 55 68 62 59 60 67 69 69 71 72 71 71 72 70 70 69 70 70 71 71 70 70
53 53 53 53 53 54 53 54 53 54 55 59 51 53 59 59 46 51 51 56 57 63 65 64 63 68 66 67 67 65 57 60 69 60 61 59 65 68 68 69 69 71 70 70 69 69 69 68 68 69 68 69 68 67
53 53 53 52 53 53 53 53 53 56 60 59 55 41 52 52 55 60 61 64 67 68 66 67 66 65 68 63 67 57 65 65 56 54 54 67 64 66 67 68 67 67 68 68 66 66 66 66 67 69 70 69 69 65
52 52 53 53 54 54 53 53 53 59 54 48 50 45 54 62 64 65 67 66 69 71 67 65 65 65 64 60 65 62 56 53 58 53 63 67 65 65 65 66 66 67 67 67 68 65 63 63 61 58 59 62 68 66
52 52 57 54 53 53 53 54 57 53 50 47 50 52 59 58 61 65 66 66 70 68 69 67 62 59 59 62 57 56 55 54 60 66 69 69 65 65 65 66 65 66 66 65 67 63 61 56 58 56 56 61 66 63
52 53 54 53 53 52 53 57 57 49 48 50 54 58 58 59 59 63 66 67 69 65 61 64 56 56 65 59 56 64 61 63 66 69 72 67 64 65 65 66 65 65 65 64 64 63 61 61 55 62 59 60 64 68
50 54 54 53 54 56 62 56 48 48 46 55 55 61 62 61 61 63 66 68 65 64 64 61 68 59 57 54 60 67 69 71 72 70 70 69 67 67 66 65 65 65 65 64 63 61 58 55 55 58 62 64 68 68
52 53 53 53 52 51 52 50 50 44 49 57 61 61 60 60 65 66 67 67 67 67 62 64 61 60 61 67 66 69 72 72 70 70 71 67 67 66 66 66 66 65 61 62 60 59 55 56 61 62 63 65 67 68
52 52 52 52 52 47 45 47 52 46 47 57 61 59 60 61 65 66 65 65 64 62 59 58 63 67 68 72 74 72 73 74 70 68 70 71 71 67 68 68 69 65 63 61 60 52 57 58 67 70 67 66 65 68
50 52 53 52 49 47 45 46 45 48 53 55 61 58 57 63 61 62 63 67 60 60 61 68 69 73 75 76 77 75 73 71 71 72 71 72 71 73 72 72 71 71 66 64 62 61 56 62 72 73 72 73 75 77
50 53 50 50 46 46 44 49 45 50 49 56 58 59 58 58 60 62 66 59 61 64 68 69 71 73 72 69 72 70 72 70 71 69 55 60 70 70 72 74 73 73 74 73 73 73 73 75 76 76 76 76 69 77
50 50 48 47 43 41 42 51 44 48 44 52 59 55 57 58 62 63 59 63 65 70 71 72 71 73 72 74 72 71 71 71 72 73 73 75 75 75 75 75 77 77 74 74 77 78 76 58 67 75 77 76 77 77
50 47 44 43 42 40 48 44 49 52 55 54 54 52 56 59 62 56 56 63 69 70 70 67 70 71 71 69 72 71 72 74 75 75 76 75 75 74 76 77 78 78 79 79 78 77 77 76 66 76 77 76 76 76
40 40 41 36 45 43 42 44 47 49 48 53 52 54 58 62 54 54 56 63 69 70 71 70 71 73 73 74 75 75 74 76 75 74 76 77 78 79 77 78 78 79 81 77 75 76 76 77 77 76 77 76 76 76
35 42 38 43 43 42 44 43 48 49 52 51 54 59 62 55 52 54 56 60 64 69 71 72 72 72 72 75 74 75 74 78 78 75 77 79 79 77 76 75 74 76 82 81 79 78 77 77 77 75 76 74 55 72
36 40 44 48 45 46 45 52 55 54 51 51 56 56 54 50 52 57 66 68 68 70 72 73 74 75 74 71 78 79 81 79 77 79 83 82 82 82 81 76 75 80 84 82 81 80 79 78 78 77 77 79 79 79
43 45 41 43 43 46 46 51 51 51 55 61 60 53 52 54 54 64 67 70 70 71 72 73 76 77 79 79 81 80 79 80 81 81 81 81 82 83 83 83 83 53 79 83 81 81 81 81 80 79 79 79 79 82
41 46 45 43 44 45 47 50 54 61 65 62 58 58 60 66 64 64 70 72 74 72 70 74 78 79 78 79 80 82 83 81 76 72 72 75 76 79 84 84 84 82 80 80 51 63 75 78 80 81 81 81 81 82
45 50 44 45 43 43 50 59 59 63 65 65 65 64 65 67 71 74 72 72 72 74 74 77 79 78 78 78 78 79 83 83 83 81 77 76 79 84 86 85 84 84 83 83 82 78 46 65 65 77 76 80 80 80
48 47 44 45 45 54 58 63 64 64 64 63 65 62 62 65 70 73 72 74 75 77 76 75 76 79 79 79 80 79 79 84 84 83 84 86 86 86 87 85 85 85 84 83 83 82 80 78 79 79 79 78 79 75
49 46 45 43 49 60 62 60 60 60 62 61 62 65 65 63 60 67 75 76 75 76 68 72 77 79 83 84 85 85 55 84 86 84 82 84 85 86 86 87 86 85 84 83 83 83 81 80 81 80 80 79 79 79
51 52 52 51 54 54 60 59 58 57 61 61 64 65 65 63 60 71 78 77 72 72 76 80 81 81 81 80 81 81 65 84 73 51 52 49 43 53 73 85 86 84 83 83 83 84 82 81 81 80 80 79 80 80
MSLP
1026.39 1026.04 1025.80 1025.39 1025.07 1024.79 1024.45 1024.08 1023.70 1023.33 1022.92 1022.48 1021.97 1021.47 1021.03 1020.59 1020.23 1019.66 1017.99 1018.25 1017.39 1015.27 1013.35 1012.91 1012.42 1011.71 1010.94 1010.52 1009.46 1009.08 1008.42 1007.74 1006.83 1005.95 1004.92 1004.06 1003.33 1003.08 1003.00 1002.94 1002.87 1002.68 1002.56 1001.94 1001.72 1001.52 1001.64 1002.29 1001.94 1001.96 1002.30 1002.11 1001.65 1001.65
1026.16 1025.76 1025.48 1025.23 1024.89 1024.57 1024.21 1023.84 1023.45 1023.08 1022.73 1022.34 1021.91 1021.45 1021.04 1020.68 1020.33 1019.98 1017.98 1018.26 1018.19 1016.78 1013.94 1013.71 1013.02 1012.56 1012.12 1011.66 1011.17 1010.05 1009.30 1008.82 1008.12 1007.04 1006.40 1005.78 1004.92 1004.34 1004.22 1003.34 1003.84 1003.90 1003.64 1003.56 1003.30 1002.38 1003.46 1003.35 1003.27 1003.15 1003.14 1002.89 1002.45 1002.51
1025.91 1025.49 1025.11 1024.84 1024.57 1024.26 1023.92 1023.55 1023.18 1022.79 1022.40 1022.07 1021.70 1021.29 1020.89 1020.57 1020.32 1020.15 1018.68 1018.27 1017.61 1015.93 1013.55 1012.60 1011.52 1011.59 1011.88 1011.96 1011.87 1010.85 1009.62 1009.84 1009.26 1009.46 1007.97 1006.96 1006.40 1006.03 1004.94 1004.20 1004.70 1005.13 1005.66 1004.91 1004.65 1004.03 1004.21 1003.76 1003.80 1003.64 1003.84 1003.49 1003.36 1003.18
1025.65 1025.27 1024.88 1024.52 1024.22 1023.89 1023.52 1023.18 1022.83 1022.45 1022.04 1021.65 1021.30 1020.95 1020.60 1020.32 1020.08 1019.93 1018.55 1017.94 1017.69 1016.07 1013.71 1011.19 1011.22 1011.02 1011.39 1011.26 1011.38 1011.20 1010.68 1010.60 1010.03 1009.42 1008.22 1007.46 1006.93 1007.20 1006.26 1006.24 1006.29 1006.05 1006.60 1006.17 1005.78 1005.27 1005.17 1004.37 1004.89 1004.97 1004.85 1004.31 1004.03 1004.08
1025.40 1025.05 1024.61 1024.16 1023.84 1023.53 1023.16 1022.77 1022.39 1022.00 1021.60 1021.19 1020.81 1020.46 1020.16 1019.89 1019.67 1019.26 1018.47 1017.65 1017.62 1016.81 1014.01 1011.66 1010.96 1010.75 1010.81 1010.76 1011.01 1011.15 1010.97 1010.65 1009.99 1008.96 1008.25 1007.64 1007.63 1007.82 1007.07 1007.30 1006.59 1006.50 1007.34 1007.37 1007.14 1007.45 1007.28 1006.23 1006.12 1006.15 1005.52 1004.88 1004.73 1004.59
1025.08 1024.75 1024.35 1023.90 1023.48 1023.09 1022.71 1022.35 1021.95 1021.52 1021.09 1020.66 1020.24 1019.85 1019.60 1019.42 1019.25 1018.20 1016.95 1017.31 1017.26 1017.13 1015.23 1011.97 1010.78 1010.49 1010.34 1010.44 1010.49 1010.67 1010.69 1010.61 1010.20 1009.09 1008.23 1008.10 1008.73 1008.94 1007.75 1007.03 1007.63 1008.09 1008.66 1008.77 1008.42 1008.44 1008.05 1007.04 1006.37 1005.96 1005.68 1005.02 1004.99 1004.63
1024.79 1024.43 1024.02 1023.61 1023.17 1022.70 1022.24 1021.84 1021.44 1020.99 1020.50 1020.02 1019.57 1019.13 1018.80 1018.77 1018.43 1017.46 1017.21 1017.22 1017.33 1017.08 1015.05 1012.26 1010.18 1010.06 1010.31 1010.21 1010.08 1010.18 1010.51 1010.07 1009.85 1008.97 1008.76 1008.37 1008.48 1009.36 1008.18 1007.62 1007.78 1008.55 1008.87 1008.99 1009.04 1008.71 1007.33 1006.73 1006.52 1006.44 1006.00 1005.53 1005.87 1005.72
1024.57 1024.19 1023.72 1023.29 1022.85 1022.39 1021.90 1021.39 1020.87 1020.35 1019.80 1019.24 1018.77 1018.40 1017.90 1017.75 1018.15 1017.38 1017.31 1017.86 1017.43 1016.26 1014.99 1012.57 1010.31 1009.86 1010.04 1009.26 1009.13 1009.98 1009.40 1009.69 1009.64 1008.92 1009.08 1008.67 1008.44 1008.81 1008.33 1008.69 1009.04 1009.28 1009.28 1008.79 1008.96 1008.88 1008.09 1007.49 1006.96 1006.44 1006.37 1006.19 1006.44 1006.70
1024.23 1023.88 1023.46 1023.02 1022.57 1022.11 1021.61 1021.05 1020.39 1019.72 1019.11 1018.52 1018.15 1017.92 1017.59 1017.52 1016.82 1016.87 1017.71 1017.57 1017.24 1016.59 1014.25 1012.67 1010.58 1009.37 1010.08 1009.69 1009.74 1009.76 1009.75 1008.95 1009.34 1008.91 1008.70 1009.32 1008.14 1008.24 1009.21 1009.49 1009.76 1009.90 1009.74 1009.43 1009.10 1008.49 1007.71 1007.43 1006.99 1006.79 1006.70 1006.78 1006.78 1007.38
1023.86 1023.50 1023.10 1022.72 1022.32 1021.87 1021.37 1020.78 1020.03 1019.14 1018.33 1017.80 1017.65 1017.45 1016.48 1016.85 1017.76 1017.71 1017.68 1016.54 1016.03 1015.13 1014.46 1012.56 1011.50 1010.24 1010.49 1009.81 1009.56 1009.75 1009.62 1009.09 1008.64 1008.81 1009.45 1008.90 1008.02 1009.46 1009.67 1010.02 1010.24 1010.24 1010.00 1009.58 1008.89 1008.26 1008.01 1007.67 1007.38 1007.13 1007.06 1007.13 1007.17 1007.46
1023.53 1023.24 1022.83 1022.39 1021.99 1021.64 1021.18 1020.60 1019.96 1018.88 1017.65 1017.40 1017.47 1017.14 1017.21 1017.25 1017.01 1016.04 1015.09 1014.63 1013.86 1013.24 1012.63 1011.78 1011.28 1010.63 1011.00 1010.28 1009.73 1010.24 1009.56 1009.56 1008.78 1008.91 1009.03 1008.31 1009.17 1009.55 1010.12 1010.17 1010.25 1010.17 1009.91 1009.62 1009.46 1009.14 1008.63 1008.32 1007.94 1007.60 1007.59 1007.84 1007.88 1007.99
1023.19 1022.87 1022.61 1022.22 1021.71 1021.33 1021.00 1020.54 1020.08 1018.87 1018.84 1019.36 1019.58 1018.77 1017.65 1016.24 1015.37 1014.75 1013.54 1013.06 1012.57 1011.34 1011.50 1011.14 1011.01 1011.14 1011.05 1011.24 1010.47 1010.40 1009.76 1009.82 1008.88 1009.61 1009.18 1008.44 1009.69 1010.07 1010.23 1010.31 1010.24 1010.15 1010.09 1009.78 1009.61 1009.38 1009.12 1009.00 1008.75 1008.26 1008.15 1008.36 1008.72 1008.78
1022.83 1022.53 1022.18 1021.83 1021.51 1021.09 1020.80 1020.49 1020.20 1019.89 1019.26 1018.90 1019.05 1017.58 1016.14 1015.17 1014.31 1013.04 1011.75 1011.24 1010.96 1010.81 1010.92 1011.03 1010.90 1010.85 1011.31 1011.16 1010.46 1010.25 1009.78 1009.11 1009.73 1009.08 1008.37 1009.30 1009.85 1010.20 1010.40 1010.45 1010.33 1010.22 1010.26 1010.07 1009.94 1009.92 1009.75 1009.50 1009.47 1009.27 1009.21 1009.27 1009.42 1009.53
1022.40 1022.11 1021.78 1021.42 1021.02 1020.61 1020.49 1020.25 1019.99 1019.49 1018.83 1017.68 1017.07 1016.30 1015.04 1013.58 1012.53 1011.16 1010.69 1010.23 1010.40 1010.43 1010.54 1010.56 1010.63 1010.70 1010.69 1010.51 1010.10 1009.80 1009.51 1009.71 1008.96 1008.54 1008.51 1009.01 1010.05 1010.41 1010.62 1010.68 1010.63 1010.34 1010.28 1010.20 1010.34 1010.39 1010.35 1010.20 1009.90 1009.82 1009.79 1009.86 1009.49 1009.68
1021.97 1021.65 1021.31 1020.94 1020.67 1020.52 1020.34 1020.06 1019.80 1019.38 1018.96 1017.95 1017.04 1015.17 1013.48 1012.33 1011.81 1011.29 1010.97 1010.74 1010.45 1010.61 1010.60 1010.66 1010.75 1010.72 1010.34 1010.31 1009.96 1009.73 1009.39 1008.81 1008.56 1008.62 1008.81 1009.31 1010.26 1010.60 1010.66 1010.72 1010.67 1010.50 1010.34 1010.39 1010.49 1010.68 1010.92 1011.01 1011.14 1011.11 1010.83 1010.60 1010.05 1010.06
1021.55 1021.17 1020.41 1020.64 1020.48 1020.25 1020.08 1019.71 1019.40 1019.41 1018.75 1017.84 1016.51 1014.52 1013.03 1012.37 1011.28 1010.88 1010.56 1010.35 1010.57 1010.61 1010.74 1010.54 1010.26 1010.13 1009.76 1009.67 1009.53 1008.98 1008.73 1008.30 1008.45 1008.69 1008.97 1009.58 1010.21 1010.47 1010.60 1010.65 1010.70 1010.70 1010.59 1010.67 1010.86 1011.27 1011.57 1011.74 1011.67 1011.58 1010.91 1010.48 1010.55 1010.66
1021.32 1020.60 1020.36 1020.46 1020.34 1019.95 1019.66 1019.41 1019.05 1018.80 1017.95 1016.56 1014.61 1013.79 1013.15 1012.38 1011.70 1011.17 1010.87 1010.59 1010.97 1010.66 1010.06 1009.96 1009.66 1009.36 1009.63 1009.18 1008.83 1008.67 1008.29 1008.39 1008.57 1008.78 1009.03 1009.86 1010.22 1010.43 1010.64 1010.66 1010.65 1010.71 1010.66 1010.77 1011.07 1011.46 1011.67 1011.93 1011.81 1011.74 1011.35 1011.11 1010.75 1010.71
1020.66 1020.22 1020.25 1020.28 1020.15 1019.37 1018.84 1019.07 1018.74 1017.96 1016.78 1014.98 1013.72 1012.54 1012.34 1012.16 1011.65 1011.13 1010.83 1010.85 1010.89 1010.50 1010.33 1009.52 1009.21 1009.05 1008.57 1008.35 1008.08 1008.08 1008.26 1008.44 1008.69 1008.93 1009.22 1009.75 1010.22 1010.51 1010.67 1010.64 1010.57 1010.64 1010.65 1010.84 1011.23 1011.70 1011.76 1011.84 1011.82 1011.47 1011.10 1010.93 1010.71 1011.24
1020.03 1020.04 1020.13 1020.23 1020.29 1019.97 1018.92 1018.59 1018.37 1017.18 1015.57 1014.16 1013.08 1012.65 1012.35 1011.82 1011.29 1011.08 1010.80 1010.73 1010.89 1010.88 1010.65 1009.67 1008.69 1008.06 1007.81 1007.91 1007.88 1007.78 1008.00 1008.27 1008.44 1008.82 1009.34 1009.94 1010.27 1010.43 1010.55 1010.50 1010.50 1010.58 1010.96 1011.17 1011.43 1011.81 1012.12 1012.07 1011.72 1011.36 1011.12 1011.06 1010.81 1011.24
1019.61 1019.75 1019.85 1020.01 1020.21 1019.83 1019.06 1018.27 1017.83 1016.79 1015.09 1013.28 1012.78 1012.07 1011.62 1011.02 1010.59 1010.42 1010.31 1010.30 1010.47 1010.47 1009.78 1008.84 1007.76 1007.31 1007.27 1007.30 1007.66 1007.98 1008.15 1008.39 1008.69 1008.58 1008.80 1009.25 1009.85 1010.27 1010.28 1010.21 1010.04 1010.64 1010.93 1011.46 1011.74 1011.80 1012.10 1011.74 1011.08 1010.82 1010.89 1011.00 1011.09 1010.76
1019.37 1018.96 1019.12 1019.56 1019.67 1019.63 1018.96 1017.96 1017.22 1016.16 1014.71 1013.18 1012.00 1011.85 1011.08 1010.40 1010.19 1009.80 1009.63 1009.69 1009.86 1008.97 1008.18 1007.61 1007.24 1006.87 1006.96 1007.25 1007.69 1008.03 1008.21 1008.55 1008.32 1008.30 1008.51 1008.63 1009.44 1009.62 1009.74 1009.86 1010.05 1010.01 1010.47 1010.96 1011.24 1011.28 1011.38 1010.78 1010.11 1010.10 1010.47 1010.32 1010.23 1010.19
1018.76 1018.81 1018.96 1019.17 1019.19 1019.00 1018.43 1017.47 1016.91 1015.90 1015.03 1012.84 1011.96 1011.31 1010.39 1009.70 1009.24 1009.12 1009.09 1009.12 1008.23 1007.55 1007.29 1007.05 1006.81 1006.74 1006.89 1007.45 1007.62 1008.16 1008.19 1008.62 1008.72 1008.88 1009.18 1009.30 1009.06 1009.09 1009.11 1009.19 1009.24 1009.00 1009.11 1009.35 1009.50 1009.39 1009.54 1009.51 1009.77 1009.89 1009.89 1009.95 1010.38 1010.24
1018.72 1018.80 1018.69 1018.75 1018.64 1018.12 1017.19 1016.54 1016.13 1015.10 1014.05 1012.18 1011.06 1010.29 1009.48 1009.14 1008.84 1009.23 1008.56 1007.60 1006.87 1006.48 1006.48 1006.43 1006.58 1006.81 1006.82 1007.04 1007.49 1007.84 1008.12 1008.29 1008.20 1008.22 1008.53 1008.42 1008.54 1008.71 1008.74 1008.83 1008.79 1008.54 1008.49 1008.94 1009.00 1008.85 1008.96 1009.72 1009.96 1009.60 1009.62 1009.98 1009.80 1009.77
1018.61 1018.37 1018.01 1017.78 1017.63 1016.77 1016.16 1015.60 1015.01 1013.81 1012.47 1011.41 1010.34 1009.50 1008.85 1008.51 1008.68 1008.44 1007.40 1006.39 1005.92 1006.21 1006.09 1006.27 1006.48 1006.43 1006.72 1007.00 1006.83 1007.16 1007.65 1007.78 1007.59 1007.80 1008.01 1007.94 1007.83 1008.05 1008.23 1008.09 1008.15 1008.24 1008.23 1008.24 1008.40 1008.67 1008.93 1009.16 1009.47 1009.46 1009.32 1009.34 1009.39 1009.27
1018.43 1017.96 1017.66 1016.89 1016.34 1015.98 1015.19 1014.43 1013.58 1012.73 1011.40 1010.42 1009.83 1008.91 1008.19 1008.16 1008.05 1007.65 1006.66 1006.06 1005.81 1005.64 1005.71 1005.88 1005.85 1005.69 1005.48 1005.48 1005.81 1006.33 1007.08 1007.12 1007.02 1007.02 1007.29 1007.45 1007.32 1007.40 1007.55 1007.61 1007.68 1007.70 1007.81 1007.95 1008.17 1008.20 1008.29 1008.61 1008.73 1008.84 1008.88 1008.91 1008.94 1008.97
1017.59 1016.89 1016.68 1015.77 1015.22 1014.91 1014.12 1013.15 1012.02 1011.09 1010.37 1009.69 1008.98 1008.39 1007.98 1007.83 1007.49 1006.49 1006.38 1006.36 1006.11 1005.90 1005.69 1005.42 1005.18 1005.08 1005.27 1005.27 1005.34 1005.74 1006.41 1006.77 1006.68 1006.70 1006.64 1006.90 1006.87 1006.78 1006.54 1006.58 1006.72 1006.81 1007.18 1007.41 1007.38 1007.49 1007.74 1008.08 1008.21 1008.48 1008.56 1008.79 1009.31 1009.21
1016.71 1015.90 1015.49 1015.19 1014.87 1014.42 1013.63 1012.50 1011.32 1010.48 1009.53 1008.71 1008.17 1007.72 1007.52 1007.13 1006.43 1006.51 1006.46 1006.46 1006.16 1006.10 1006.14 1005.96 1005.43 1004.87 1004.84 1005.48 1005.19 1005.47 1005.80 1006.36 1006.58 1006.39 1006.28 1006.44 1006.45 1006.47 1006.43 1006.46 1006.45 1006.49 1006.63 1006.84 1007.07 1007.15 1007.24 1007.52 1007.75 1007.97 1008.02 1008.01 1008.01 1008.15
1015.79 1015.12 1014.75 1014.57 1014.43 1013.95 1012.89 1011.35 1010.24 1009.35 1008.59 1008.05 1007.75 1007.02 1006.70 1006.37 1006.37 1006.36 1006.48 1006.51 1006.42 1006.33 1006.06 1005.87 1005.50 1005.25 1004.79 1004.75 1005.02 1005.51 1005.80 1006.02 1006.23 1006.33 1006.35 1006.29 1006.20 1006.16 1006.16 1006.19 1006.25 1006.77 1006.65 1006.57 1006.73 1006.90 1007.00 1007.10 1007.38 1007.49 1007.49 1007.45 1007.46 1007.61
1015.05 1014.54 1014.38 1013.83 1013.59 1013.04 1012.07 1010.83 1009.34 1008.32 1008.02 1007.73 1007.25 1006.85 1006.51 1006.57 1006.86 1006.82 1006.46 1006.26 1006.02 1005.93 1005.64 1004.91 1004.42 1004.73 1004.88 1004.99 1004.97 1004.95 1004.93 1005.24 1005.39 1005.49 1005.46 1004.81 1004.65 1004.94 1005.18 1005.43 1005.49 1005.95 1006.36 1006.46 1007.19 1007.30 1006.97 1007.39 1007.40 1007.37 1007.01 1007.01 1007.09 1007.20
1013.94 1013.73 1013.48 1012.99 1012.40 1011.58 1010.70 1009.54 1008.64 1008.26 1007.89 1007.69 1007.44 1007.25 1006.91 1006.50 1006.28 1006.21 1006.08 1005.84 1005.46 1004.89 1004.86 1004.54 1004.36 1004.14 1003.81 1003.94 1004.11 1004.45 1004.51 1004.54 1004.55 1004.34 1004.08 1004.15 1004.07 1003.95 1004.05 1004.59 1004.89 1005.13 1005.47 1005.59 1006.03 1006.69 1007.82 1007.75 1007.59 1007.36 1007.29 1006.78 1006.80 1006.88
1013.24 1013.07 1012.76 1012.15 1011.17 1010.10 1009.25 1008.67 1008.13 1007.76 1007.48 1007.20 1007.02 1006.72 1006.24 1006.02 1005.89 1005.73 1005.43 1005.16 1004.99 1004.49 1004.28 1004.20 1004.01 1003.71 1003.51 1003.29 1003.12 1003.10 1003.34 1003.73 1004.04 1004.18 1004.19 1003.94 1003.78 1003.68 1003.78 1004.27 1004.49 1004.54 1004.91 1005.07 1005.28 1005.70 1006.25 1006.51 1006.38 1006.29 1006.21 1006.26 1006.19 1006.49
1012.24 1011.94 1011.65 1010.90 1009.82 1008.54 1008.11 1007.70 1007.09 1006.61 1006.14 1005.83 1005.57 1005.52 1005.47 1005.42 1005.15 1004.70 1004.22 1004.12 1004.06 1003.76 1003.74 1003.78 1003.34 1002.96 1002.96 1003.01 1002.93 1002.95 1003.25 1003.05 1002.98 1003.66 1004.05 1004.00 1003.82 1003.81 1003.82 1003.86 1004.08 1004.07 1004.29 1004.56 1004.75 1004.88 1005.32 1005.50 1005.40 1005.43 1005.41 1005.66 1005.75 1005.83
1010.80 1010.47 1010.19 1009.73 1008.58 1007.72 1006.99 1006.94 1006.21 1005.65 1005.01 1004.63 1004.29 1004.24 1004.41 1004.54 1004.34 1003.65 1003.53 1003.73 1003.89 1003.77 1003.47 1003.28 1003.37 1003.25 1003.27 1003.44 1003.32 1003.30 1003.77 1003.33 1003.55 1004.14 1004.35 1004.58 1004.75 1004.79 1004.57 1003.80 1003.58 1003.78 1003.75 1003.96 1004.17 1004.23 1004.47 1004.72 1004.82 1004.88 1004.98 1005.13 1005.20 1005.30
Wind_Speed
11 10 12 13 11 12 12 13 13 14 15 16 16 17 16 16 15 8 3 3 5 4 8 5 6 7 5 4 5 6 7 6 6 7 7 10 8 11 7 12 14 13 13 13 13 13 21 14 5 7 9 10 10 9
12 11 11 13 13 13 13 13 13 13 14 15 16 16 16 14 13 10 3 1 3 6 6 5 11 14 13 10 7 3 6 4 5 5 2 4 7 5 9 12 4 10 9 9 11 7 7 7 9 9 11 9 7 8
12 11 10 12 13 13 14 14 14 14 15 15 16 16 15 13 11 6 5 4 4 4 6 5 3 3 9 13 12 6 4 5 2 5 5 3 6 4 9 3 7 3 7 6 5 3 12 11 8 7 11 10 9 4
12 12 12 12 13 13 14 15 15 15 15 16 16 16 15 13 11 6 5 1 4 4 5 4 2 1 1 6 10 13 7 3 4 4 4 4 5 2 6 7 7 7 8 8 11 8 13 4 12 14 15 12 4 1
12 12 12 12 12 14 14 14 15 16 17 17 17 17 16 14 11 8 5 4 4 6 6 5 7 2 3 5 9 10 10 9 6 4 4 5 3 4 7 5 10 3 6 5 5 11 9 16 12 19 16 15 3 6
12 13 13 13 13 13 14 15 16 17 18 18 18 17 15 12 8 5 5 5 5 3 5 4 4 2 2 3 4 8 7 6 5 4 4 3 2 5 5 6 6 4 5 7 8 13 14 18 16 8 10 10 4 3
12 12 12 13 13 14 14 15 16 17 17 18 18 17 15 9 6 4 7 5 4 3 5 4 3 5 2 3 4 5 6 3 4 3 5 6 5 4 8 9 7 8 8 7 3 12 10 11 12 17 13 6 3 5
13 14 13 13 14 14 15 16 17 18 19 19 18 16 10 8 5 4 4 4 5 5 4 4 2 4 4 1 4 1 4 4 5 5 3 6 2 5 6 7 8 9 10 5 7 12 13 13 12 9 7 3 2 5
13 14 14 14 14 15 15 17 19 19 19 18 14 2 5 4 3 4 5 7 4 5 4 3 4 3 1 2 1 4 2 5 3 5 2 4 7 4 6 7 8 8 8 10 12 13 9 11 10 8 6 2 3 4
13 13 13 14 14 15 16 17 20 21 20 13 4 4 4 4 5 6 5 4 5 5 4 4 1 2 4 0 2 3 2 2 4 4 2 5 1 4 4 6 6 7 9 10 12 12 13 13 12 9 6 3 2 8
13 13 14 14 14 14 15 16 18 20 9 3 4 2 4 2 5 4 3 4 4 5 5 4 3 4 2 4 2 1 2 1 4 5 4 2 4 4 4 6 6 7 9 9 8 10 12 12 11 7 2 1 7 13
14 12 14 14 14 13 14 13 13 8 5 6 4 5 4 4 4 5 4 3 5 2 5 4 2 2 2 1 4 3 3 3 3 2 4 2 5 4 6 7 8 8 9 10 9 10 9 8 8 3 5 7 9 14
14 14 13 14 14 13 11 10 10 10 10 2 3 3 1 3 2 6 6 4 3 5 5 5 4 2 4 4 3 3 5 2 1 5 2 4 4 4 5 7 7 7 7 7 7 7 8 6 2 2 6 8 11 13
14 14 14 14 15 14 8 9 11 9 5 4 4 3 5 5 5 4 4 1 4 1 5 4 2 3 1 4 1 4 2 3 4 4 2 2 6 6 6 6 6 8 6 6 5 5 5 7 4 1 5 7 10 12
13 13 15 13 4 6 8 10 9 2 3 3 3 5 6 4 4 4 3 4 3 1 4 3 2 3 3 4 3 2 4 4 2 1 3 6 5 5 6 6 6 7 6 4 3 4 5 6 6 5 5 4 5 11
12 14 3 2 6 8 10 8 2 1 2 3 6 5 5 5 6 5 4 4 3 3 2 3 2 3 4 2 4 5 3 2 2 3 5 3 3 5 6 6 6 6 7 5 1 4 5 5 5 4 5 6 9 8
8 5 4 5 9 12 6 4 2 3 3 5 5 6 7 7 7 5 3 1 1 4 4 3 5 3 2 3 3 2 2 4 4 5 3 3 4 4 5 6 6 6 6 5 2 6 6 5 5 7 8 4 5 7
5 2 4 4 8 6 2 3 2 3 6 7 6 4 4 5 6 5 4 3 4 4 2 3 1 7 4 3 3 3 1 4 3 4 4 2 2 2 4 6 6 5 5 4 5 5 7 9 7 3 6 8 11 11
4 4 1 3 3 4 2 2 3 4 6 7 6 6 5 5 7 8 7 4 4 2 3 4 5 4 5 3 5 3 1 3 4 2 1 2 1 1 3 4 3 4 4 5 4 4 4 4 6 1 3 5 7 8
12 11 10 9 6 2 3 3 2 4 4 2 4 5 5 6 5 5 6 7 6 4 6 5 8 5 5 3 2 4 4 2 2 4 2 3 3 3 1 4 5 4 4 6 4 3 4 5 5 3 4 5 5 8
4 4 8 7 3 4 3 2 3 3 5 5 4 3 4 5 6 7 7 7 6 5 8 7 8 8 5 1 2 2 3 4 4 3 3 1 3 2 3 2 2 4 5 6 6 6 6 3 2 6 7 6 4 4
1 6 1 2 3 3 4 4 3 4 4 6 5 4 5 6 6 4 2 6 6 10 9 9 7 7 6 7 5 6 5 7 3 3 2 3 5 5 4 4 4 4 3 5 4 5 4 4 4 4 4 5 2 4
4 3 2 3 4 5 4 3 4 4 4 4 3 4 4 3 2 3 4 5 5 8 9 10 10 8 7 2 4 8 8 10 6 5 5 4 4 3 3 3 2 1 4 5 3 3 4 4 3 4 5 5 4 4
0 3 3 4 6 4 3 4 4 4 4 5 3 3 3 3 3 4 5 4 2 1 4 7 7 8 6 6 7 8 9 8 6 5 5 5 5 5 5 4 4 4 3 3 4 4 4 4 2 5 4 5 6 5
3 4 3 5 3 4 4 4 5 4 5 5 4 5 4 3 3 4 7 1 1 1 2 5 6 7 8 6 6 7 10 9 8 7 7 5 3 2 4 4 4 5 5 6 6 6 5 5 6 6 7 7 6 5
4 5 5 4 3 4 5 4 6 6 4 4 5 3 2 3 4 4 2 2 2 2 2 2 4 6 5 5 6 7 9 8 6 6 5 5 5 5 5 4 4 6 5 6 6 6 6 6 6 7 8 7 4 7
4 5 4 3 2 2 4 6 5 4 4 4 3 3 3 4 5 3 3 3 3 4 3 3 3 4 6 7 5 5 7 8 8 6 3 4 5 5 6 5 7 4 4 6 7 8 7 7 7 8 8 7 6 7
4 3 4 5 4 3 4 4 4 5 5 3 3 4 2 4 2 3 3 3 4 5 5 4 4 4 4 5 7 7 7 7 7 6 5 7 7 7 8 7 7 5 5 5 6 7 8 8 8 9 9 7 6 4
4 3 3 5 4 5 6 6 5 3 1 3 3 3 2 3 1 2 5 6 6 4 5 5 4 5 6 6 6 6 7 7 9 10 11 9 7 7 8 7 5 6 6 7 8 8 5 8 8 8 9 7 6 5
4 5 3 4 5 6 5 6 6 6 4 5 5 6 8 8 7 6 8 7 7 6 4 4 3 5 6 9 10 9 8 8 8 9 8 7 6 5 6 5 5 6 6 6 7 8 2 6 5 7 7 7 7 7
1 3 3 4 5 7 10 10 10 10 10 11 10 11 11 9 9 9 10 9 8 8 5 5 5 6 6 7 8 10 10 9 10 11 10 7 7 6 3 4 5 6 8 8 7 7 8 9 9 10 10 10 8 6
5 7 4 4 7 7 5 7 8 11 11 11 11 11 10 9 9 7 7 7 8 8 4 5 5 6 5 5 4 5 4 6 3 7 9 7 7 7 6 5 6 6 9 11 10 10 11 11 9 9 8 9 9 9
6 7 7 8 5 5 4 5 4 4 5 4 3 6 8 6 6 3 3 4 5 6 4 4 4 5 5 6 6 4 4 5 3 4 5 8 9 8 7 7 5 8 11 11 12 12 14 14 12 11 10 10 10 9
Wind_Direction
319 322 328 325 323 325 325 327 330 332 334 337 341 343 347 351 353 334 338 349 319 298 293 265 273 272 239 247 294 37 267 188 252 261 263 270 261 272 278 277 288 273 270 264 266 262 276 20 282 262 354 329 345 347
319 317 323 329 326 323 321 322 323 325 327 329 332 334 338 343 346 330 277 112 315 258 309 314 282 276 273 290 304 247 339 315 2 274 214 294 254 252 278 275 147 254 303 319 313 323 348 313 300 316 320 308 337 340
318 318 319 325 322 320 319 318 320 322 323 324 324 325 328 332 338 324 302 334 244 269 251 238 207 131 215 236 250 275 160 355 113 346 332 335 276 319 276 290 313 166 13 277 324 52 349 334 337 333 342 334 349 343
319 320 320 319 321 321 319 318 318 319 319 320 321 321 320 321 325 300 276 347 268 284 282 110 187 244 161 221 220 230 276 245 298 285 287 292 292 91 304 335 296 355 324 343 294 302 330 127 5 352 336 311 359 9
321 318 314 312 314 320 321 317 315 317 318 317 316 315 314 316 313 273 259 250 260 310 328 310 303 119 267 244 228 226 237 247 284 257 245 269 306 307 261 283 261 331 22 299 316 343 310 297 320 319 325 314 344 134
326 321 316 318 316 315 319 316 314 315 314 311 308 306 305 302 291 253 216 177 206 237 276 267 43 207 14 71 163 196 211 218 246 272 278 295 83 280 278 283 88 67 350 324 296 321 298 287 294 304 312 280 249 136
323 319 316 317 316 316 315 315 313 310 307 306 304 305 300 271 230 275 4 30 159 227 257 273 218 117 8 185 147 145 170 200 258 259 249 288 269 235 274 268 15 359 350 323 308 333 324 359 322 321 318 328 8 87
319 319 318 316 315 314 314 315 314 311 308 308 309 311 319 155 247 212 113 221 229 270 260 274 241 204 353 181 172 201 202 195 186 286 244 255 247 234 265 39 351 343 330 310 312 318 300 310 307 304 315 316 166 125
314 316 320 317 316 317 318 317 316 314 311 308 315 172 183 227 218 75 359 150 219 292 294 260 280 101 319 155 259 185 257 253 82 258 229 265 244 234 29 342 345 346 332 314 312 305 308 331 333 320 316 318 183 148
310 313 320 323 319 318 320 321 320 318 315 308 240 217 180 69 333 179 179 204 199 185 223 262 319 226 294 167 146 257 198 292 254 94 281 240 167 42 11 2 352 339 329 325 318 321 325 317 325 330 323 341 86 124
311 314 320 322 322 320 321 324 324 320 283 6 344 351 352 328 215 217 234 226 161 219 195 237 261 302 116 283 15 347 356 272 252 105 274 214 158 92 28 342 342 328 326 330 330 312 311 315 310 308 332 105 131 124
310 310 315 318 320 321 325 328 329 329 360 336 311 285 265 231 215 242 211 177 225 240 162 215 155 259 118 268 256 158 265 200 259 74 248 237 90 29 341 343 339 333 332 326 338 342 337 340 331 319 130 126 120 117
306 309 307 308 311 312 318 324 329 310 277 181 231 236 226 167 248 227 201 188 220 177 174 181 174 233 169 225 243 238 228 220 343 225 233 64 45 339 336 332 338 335 341 339 343 352 349 354 13 204 150 147 133 120
301 304 301 303 306 300 292 309 319 316 272 271 293 286 224 193 237 223 250 354 63 208 162 181 144 244 139 221 273 242 96 250 243 230 151 42 34 331 321 322 310 326 334 343 3 359 8 360 5 128 168 161 145 132
293 295 296 288 280 322 313 313 313 272 271 255 244 242 228 268 274 271 288 266 182 183 174 166 176 250 168 243 219 308 215 238 255 55 350 16 350 316 313 317 310 309 314 316 35 45 48 46 38 19 5 314 162 132
297 296 242 264 297 307 309 300 233 259 247 243 240 255 239 265 248 222 231 238 146 182 192 238 191 223 207 247 209 218 262 240 78 341 356 351 316 314 323 318 301 297 301 267 204 98 76 34 27 356 350 266 159 147
283 251 132 292 307 302 289 251 223 228 253 237 227 227 262 280 278 284 281 272 192 207 219 207 213 195 117 233 236 213 268 9 1 335 341 332 296 315 324 322 313 298 305 283 244 86 58 49 20 268 218 224 173 131
236 261 252 304 323 298 197 209 246 251 246 244 248 251 228 266 277 272 243 217 225 211 237 260 115 213 224 227 230 200 334 333 294 322 336 342 267 296 312 315 316 313 327 356 141 119 62 23 325 323 158 169 121 104
228 240 190 312 308 293 281 228 228 259 248 270 260 260 256 260 261 261 263 239 232 299 288 232 235 241 234 219 266 270 265 312 321 21 330 219 253 288 330 327 339 16 98 121 120 99 64 288 302 336 136 156 133 141
241 249 254 253 234 248 253 238 217 261 270 309 261 256 248 259 270 253 227 220 209 210 206 226 237 232 241 240 195 286 306 225 202 236 183 160 176 193 187 328 47 107 115 114 128 184 215 252 221 172 136 137 159 173
185 217 213 199 183 232 274 273 249 250 281 266 296 269 274 255 244 238 226 202 207 223 226 228 241 244 242 302 234 231 218 207 239 309 26 143 157 206 154 151 161 123 150 166 176 222 240 233 130 139 156 163 153 117
181 167 109 144 220 213 249 223 252 299 261 276 275 237 254 250 245 212 183 207 238 230 231 241 231 248 198 212 207 210 186 185 192 130 160 159 173 180 187 156 206 142 119 127 157 153 158 144 136 143 163 137 186 178
164 186 190 176 222 215 254 177 231 216 247 251 230 238 220 226 208 154 229 224 248 232 232 228 232 240 265 175 180 180 181 187 185 198 161 198 151 164 173 172 220 213 155 139 178 168 112 54 160 230 147 196 196 207
130 208 220 210 200 249 213 210 227 251 234 235 240 256 235 237 161 236 246 232 216 46 211 207 200 209 197 205 203 184 185 195 201 173 194 208 200 185 220 231 198 211 270 159 192 177 183 196 157 200 215 205 206 222
194 226 216 237 223 228 210 220 210 238 250 220 248 245 224 191 233 224 246 135 295 226 183 187 203 217 218 191 201 176 177 195 205 201 182 226 252 202 209 214 222 232 203 214 212 224 207 213 202 213 205 209 212 224
222 209 208 213 191 227 195 239 215 215 235 238 230 253 229 226 236 237 89 347 46 13 325 240 213 191 193 213 181 176 176 203 211 229 202 208 233 248 251 237 219 183 196 222 239 211 207 200 207 194 205 196 201 271
239 234 204 223 278 251 249 256 265 271 246 231 236 230 230 227 224 91 103 30 352 13 353 302 279 209 172 184 187 156 160 180 203 225 233 219 238 242 259 243 231 246 213 215 215 223 213 196 199 195 205 209 214 231
251 266 230 173 205 234 270 263 230 224 232 230 254 239 244 330 72 113 64 5 352 335 315 280 248 243 229 167 173 168 179 191 200 224 242 246 237 239 237 244 251 155 255 233 222 220 226 215 202 205 209 224 227 229
236 223 223 220 203 215 224 240 251 234 247 253 263 276 285 43 96 319 316 325 319 317 286 265 202 193 204 207 206 212 203 193 206 212 231 247 203 196 203 219 221 197 205 217 191 249 243 238 236 228 222 224 230 240
231 190 237 234 217 219 232 237 259 275 265 272 294 285 268 266 276 294 288 287 294 296 263 284 294 247 224 195 196 203 216 221 230 244 226 224 238 244 166 183 207 198 186 186 174 159 147 233 214 234 232 231 231 237
224 197 230 237 254 256 260 262 263 262 258 257 255 260 268 280 284 278 266 261 263 267 244 255 236 240 238 229 230 206 209 199 223 233 249 280 295 297 275 207 226 204 188 196 187 178 168 196 200 206 209 224 227 234
202 210 216 245 261 263 262 265 259 253 255 252 249 245 247 250 262 271 251 219 227 239 234 273 258 245 214 240 252 278 346 326 183 202 224 237 260 274 276 231 223 221 199 205 204 195 190 209 207 210 211 211 224 226
223 236 238 260 251 237 201 227 261 278 264 260 258 227 214 216 226 252 143 214 216 225 251 304 303 287 285 271 277 299 287 269 320 3 307 299 294 294 292 273 226 221 213 212 215 215 209 215 228 231 233 241 246 245